Regional Weather Roundup
Issued by NWS

Home | Current Version | Previous Version | Text Only | Print | Product List | Glossary On
Versions: 1 2 3 4 5 6 7 8 9 10 11 12 13 14 15 16 17 18 19 20 21 22 23 24 25 26 27 28 29 30 31 32 33 34 35 36 37 38 39 40 41 42 43 44 45 46 47 48 49 50
000
ASUS45 KREV 260310
RWRNV
NEVADA REGIONAL WEATHER ROUNDUP
NATIONAL WEATHER SERVICE RENO NV
800 PM PDT SAT APR 25 2015

NOTE: "FAIR" INDICATES FEW OR NO CLOUDS BELOW 12,000 FEET WITH NO
SIGNIFICANT WEATHER AND/OR OBSTRUCTIONS TO VISIBILITY.

NVZ001-003-004-260400-
WESTERN NEVADA

CITY           SKY/WX    TMP DP  RH WIND       PRES   REMARKS
RENO           MOCLDY    51  26  37 N12       29.94R
CARSON CITY    MOCLDY    48  32  53 W8        29.94R
MINDEN         CLOUDY    46  32  57 W14       29.96
SLIDE MTN        N/A     27  25  93 NW7         N/A
PYRAMID LAKE     N/A     52 N/A N/A NW8         N/A
FALLON         PTCLDY    50  33  52 NW8       29.90R
LOVELOCK       PTCLDY    47  36  65 N7        29.90R
HAWTHORNE      MOCLDY    52  28  40 N15       29.90R
$$

NVZ002-CAZ072-073-260400-
NORTHERN AND CENTRAL SIERRA

CITY           SKY/WX    TMP DP  RH WIND       PRES   REMARKS
S. LAKE TAHOE  PTCLDY    37  30  75 CALM      29.97R
TRUCKEE        CLOUDY    37  32  81 W8        29.97R
SQUAW VLY 8000   N/A     30  32 100 W5          N/A
SUSANVILLE     CLEAR    N/A N/A N/A W9          N/A
BLUE CANYON    MOCLDY    40  36  86 NW3       30.01R
MAMMOTH LAKES  FAIR      39  21  48 NW13      29.92R
BRIDGEPORT     CLOUDY    38  26  62 W5        29.92R
$$

NVZ030-031-036-260400-
NORTHERN NEVADA

CITY           SKY/WX    TMP DP  RH WIND       PRES   REMARKS
ELKO           CLOUDY    43  32  65 NW5       29.84R
WINNEMUCCA     CLOUDY    39  36  89 SW6       29.92R
WENDOVER       CLOUDY    46  37  71 N12       29.75R
$$

NVZ035-037-260400-
CENTRAL NEVADA

CITY           SKY/WX    TMP DP  RH WIND       PRES   REMARKS
ELY            MOCLDY    38  31  76 NW15      29.79R
EUREKA           N/A     38  29  70 NW10      29.84R
$$

NVZ013-014-260400-
SOUTH CENTRAL NEVADA

CITY           SKY/WX    TMP DP  RH WIND       PRES   REMARKS
TONOPAH        PTCLDY    45  21  38 N22G32    29.85R
$$

NVZ017-020-022-260400-
SOUTHERN NEVADA

CITY           SKY/WX    TMP DP  RH WIND       PRES   REMARKS
LAS VEGAS      CLOUDY    54  46  74 S7        29.70S
N. LAS VEGAS   CLOUDY    53  46  77 E8        29.72S
NELLIS AFB     CLOUDY    54  48  82 N2        29.73S
HENDERSON      CLOUDY    51  46  83 E5        29.76F
MERCURY        MOCLDY    51  43  74 W3        29.74R
$$


USA.gov is the U.S. government's official web portal to all federal, state and local government web resources and services.